GFSGL_500_rhum_000.txt.gz
RH
14 16 17 94 19 20 24 46 72 69 57 15 7 9 12 17 20 18 16 16 18 18 21 27 29 24 22 13 21 12 8 11 12 20 16 13 10 8 10 14 13 9 8
34 27 19 16 97 27 32 63 78 79 62 50 22 4 6 13 18 17 18 21 20 28 30 30 28 9 20 18 17 12 9 9 11 20 15 13 14 19 19 22 15 10 8
54 49 45 30 23 29 56 76 79 81 64 54 50 31 17 7 15 16 25 25 35 46 52 34 24 10 22 16 11 10 12 13 12 16 10 30 27 33 32 35 31 30 22
52 51 54 48 25 98 54 88 62 85 80 70 75 62 54 14 13 16 25 41 52 45 49 31 10 10 11 13 9 10 11 15 16 9 6 27 39 38 35 39 41 37 25
49 32 28 28 84 87 68 83 81 82 71 73 71 63 63 56 21 17 25 45 51 46 23 17 9 9 13 12 6 6 11 16 10 5 8 32 48 45 42 32 29 26 30
63 68 67 55 52 97 99 97 78 86 82 77 92 69 72 69 51 24 20 33 49 41 26 14 8 7 6 7 7 7 14 12 7 10 32 37 47 45 41 33 27 22 20
76 73 65 50 65 81 94 94 89 96 95 88 73 60 64 77 98 56 27 42 62 51 30 17 10 9 8 8 9 8 12 9 16 41 49 53 32 36 27 23 21 22 34
79 76 72 62 67 97 91 93 92 77 82 78 81 78 95 97 96 82 67 69 74 56 26 13 10 12 13 11 8 8 9 24 47 45 36 22 25 22 24 24 28 38 47
88 81 78 58 62 86 96 93 87 77 84 91 99 96 95 97 96 96 89 69 74 30 14 13 10 13 16 13 8 8 14 51 44 29 24 22 21 21 23 46 66 47 52
79 80 70 54 59 62 77 79 73 75 80 90 96 92 82 96 93 95 94 91 42 15 11 8 5 7 16 14 9 10 21 61 46 31 28 27 22 22 31 46 70 55 61
80 87 51 49 46 52 56 67 73 83 97 96 97 96 95 96 96 95 94 62 23 12 8 3 6 16 18 14 12 15 25 65 66 45 36 31 20 20 29 32 84 70 75
62 76 61 50 52 57 64 68 62 87 97 97 96 94 97 97 94 93 62 16 12 9 4 5 20 21 15 15 17 17 23 47 76 77 59 38 21 23 28 62 96 92 94
63 63 67 57 65 73 94 80 87 94 93 89 96 95 86 97 94 65 24 15 14 10 5 17 29 21 17 22 18 15 20 26 70 85 78 37 23 24 23 92 96 86 93
82 69 70 66 84 85 76 74 97 98 95 85 97 86 86 84 58 27 27 28 16 8 10 29 26 20 25 23 22 20 54 75 61 43 37 23 22 20 22 92 98 90 97
83 43 59 91 71 60 57 46 97 97 92 49 57 85 82 84 71 36 34 33 26 14 21 34 24 28 30 27 24 49 72 67 60 51 42 34 28 22 20 68 97 97 97
35 28 40 37 43 48 48 44 58 54 42 35 74 81 56 63 57 51 40 32 24 20 34 28 31 35 33 27 22 34 84 84 70 58 46 46 44 25 19 21 91 98 98
31 33 34 38 48 89 64 39 35 25 23 28 65 61 37 50 50 54 42 39 36 37 38 36 35 38 36 32 39 60 78 80 78 80 66 52 40 24 20 14 54 97 96
54 57 71 69 62 51 49 39 40 51 56 51 35 31 39 49 52 46 48 50 47 46 46 43 44 50 46 41 50 58 60 55 68 74 61 47 30 28 23 13 15 88 96
37 43 51 52 52 51 46 56 58 49 44 27 31 44 47 46 40 40 53 46 60 60 66 72 68 71 56 51 60 61 59 52 64 68 57 46 40 40 29 13 14 38 83
42 42 67 95 84 67 57 44 34 38 40 48 44 41 34 22 20 37 59 46 75 86 84 77 66 54 47 48 63 74 60 51 54 74 67 60 52 42 23 14 17 11 31
58 83 98 90 70 63 50 45 42 31 24 25 39 30 18 27 57 72 63 72 88 95 80 56 46 42 43 53 65 52 40 38 35 41 49 44 45 37 26 20 17 12 9
99 73 57 69 78 67 59 39 29 27 28 33 26 31 39 42 49 56 83 94 84 65 49 51 50 49 51 52 48 41 34 30 28 28 27 26 26 27 27 25 21 17 12
78 81 80 70 49 19 35 59 46 24 26 19 17 16 18 28 40 52 71 68 51 50 58 60 58 57 56 54 51 46 42 39 36 33 32 28 23 21 21 22 22 20 17
97 100 86 26 21 40 35 32 34 22 9 11 11 11 13 16 23 30 40 43 53 55 52 43 40 42 43 41 40 38 36 33 30 26 24 24 25 24 20 18 18 17 15
98 57 9 42 29 26 29 29 21 15 12 9 9 11 16 20 22 24 33 49 68 66 54 34 33 40 41 38 37 33 25 17 11 9 10 12 15 19 20 18 16 15 14
35 47 54 43 35 34 26 17 8 7 8 8 8 8 8 12 20 23 24 31 38 38 31 33 44 39 38 44 29 15 13 12 13 13 12 10 8 8 10 13 13 13 12

GFSGL_500_rhum_003.txt.gz
RH
27 30 36 36 61 63 47 91 66 54 99 80 95 70 54 33 11 5 10 14 15 15 17 22 31 37 35 18 11 6 6 6 5 11 12 14 15 17 20 17 14 11 9
38 46 48 50 60 85 89 76 86 44 82 94 100 95 70 66 46 26 10 7 13 16 21 38 29 24 11 9 7 5 5 5 3 3 10 12 13 15 10 13 16 15 14
51 48 47 48 56 48 84 44 81 94 78 82 91 99 94 79 89 70 52 13 9 16 20 40 44 39 26 17 8 5 4 3 2 2 6 9 13 11 6 15 23 26 28
70 68 67 54 63 69 79 96 73 94 96 76 87 97 86 81 86 70 61 62 41 13 18 30 30 35 24 20 8 5 3 1 2 4 7 8 13 9 8 10 23 36 41
80 88 89 78 76 88 81 92 96 96 96 90 81 96 69 74 88 80 72 72 67 30 16 26 31 38 28 32 9 5 3 2 4 7 8 10 9 10 13 22 31 34 41
76 82 68 70 86 86 94 85 93 96 96 96 72 61 60 66 76 80 87 91 77 78 39 48 61 43 50 35 5 6 3 4 10 9 9 7 9 30 26 30 22 26 30
61 64 61 69 82 88 90 85 87 94 81 78 65 63 82 77 68 84 88 91 92 83 66 62 75 44 37 8 4 4 3 9 13 12 7 7 17 23 20 18 20 21 19
51 57 63 72 86 93 96 86 54 57 61 80 74 78 94 95 97 85 94 96 98 98 84 83 62 58 47 25 7 2 6 18 15 11 7 10 27 31 30 22 21 18 16
52 61 88 92 98 87 95 73 56 48 56 68 79 74 96 97 95 81 96 89 96 97 97 78 69 30 15 8 2 6 18 18 14 13 15 17 39 41 38 28 24 16 16
45 55 66 75 78 86 81 73 60 43 60 88 81 77 99 93 92 70 78 84 96 96 100 63 23 13 10 4 6 15 22 17 15 19 19 30 55 54 53 45 25 17 37
53 69 93 95 93 76 70 78 73 50 69 86 90 85 86 86 92 86 81 72 89 97 62 36 24 21 13 8 10 25 24 16 17 17 20 26 34 63 71 51 23 19 53
85 92 74 94 69 68 59 68 66 52 58 72 84 89 77 72 87 97 93 92 73 56 33 22 23 20 13 9 30 27 21 20 22 17 26 48 59 84 86 32 20 19 58
65 48 42 46 64 59 70 62 88 76 62 50 94 97 91 85 77 98 91 77 62 31 24 34 35 27 14 20 33 26 30 28 22 38 62 60 49 41 30 21 23 14 65
45 45 42 31 53 69 77 43 76 68 58 38 55 98 86 33 35 70 85 42 34 42 46 42 32 22 21 40 34 36 36 30 25 69 70 62 54 47 44 42 23 11 59
52 58 52 34 35 42 44 63 38 51 54 63 49 51 32 27 37 64 54 32 34 47 51 38 34 30 42 39 42 47 38 29 29 69 84 76 61 52 48 45 23 11 31
44 41 22 19 26 39 41 42 49 55 57 65 48 41 43 57 53 44 33 35 50 53 49 46 49 51 48 52 56 54 42 35 45 73 80 79 77 68 53 30 20 13 12
29 30 32 34 34 38 49 49 49 56 58 52 50 55 58 50 37 27 31 49 55 53 49 51 50 57 56 56 68 71 53 41 46 55 55 67 72 57 42 34 32 14 12
46 43 42 43 42 40 35 37 49 62 70 63 53 38 36 36 33 38 44 49 47 38 48 44 55 67 67 71 81 82 61 48 54 62 54 64 70 54 44 41 31 15 10
34 29 24 22 21 32 48 65 80 81 69 56 46 42 39 33 26 30 23 15 12 16 41 49 60 76 82 81 73 61 53 50 70 65 51 58 73 63 56 46 29 19 11
12 7 7 23 38 68 72 76 82 67 69 60 56 37 27 25 24 16 20 27 39 49 52 62 84 88 76 62 56 50 48 66 54 42 41 40 50 48 44 40 32 23 14
4 32 84 75 84 86 77 64 71 79 74 59 46 31 19 16 16 15 14 21 36 48 61 68 66 57 52 49 48 52 51 40 34 29 28 29 30 30 28 28 30 28 19
84 96 99 100 98 92 74 78 84 54 28 47 36 19 10 7 7 8 10 14 23 40 56 50 54 63 60 57 55 54 52 47 45 42 38 35 32 32 28 24 23 25 24
79 99 88 75 62 79 94 83 36 37 42 29 31 18 12 9 8 9 13 20 26 36 42 53 62 58 48 46 52 54 50 43 40 38 35 32 31 29 28 27 24 22 21
93 100 98 94 97 94 52 33 32 24 27 29 18 11 8 9 9 9 12 21 25 33 45 65 67 60 42 36 39 40 39 36 34 30 25 22 20 20 20 22 24 23 20
70 60 38 26 26 15 18 34 27 28 23 14 8 9 9 9 9 11 9 10 19 23 25 35 41 41 34 37 42 38 36 37 21 13 11 10 8 8 10 13 17 20 20
47 41 42 42 42 39 39 36 30 18 8 8 9 10 11 11 10 13 12 7 7 12 18 18 16 17 29 42 41 34 40 27 13 14 14 14 13 11 10 10 10 12 15

GFSGL_500_rhum_006.txt.gz
RH
19 24 34 37 38 40 39 54 77 92 62 76 87 71 96 91 80 67 54 48 27 14 9 15 18 24 31 28 21 18 18 11 5 5 5 4 3 3 2 2 3 7 12
29 41 48 39 36 38 44 77 66 61 73 96 91 94 66 90 76 85 84 72 74 63 42 9 14 24 31 39 39 30 26 19 7 4 4 2 3 3 2 4 6 8 12
57 54 57 63 64 60 69 69 60 56 70 81 97 95 94 82 61 79 87 75 71 60 59 58 20 14 32 36 31 33 27 23 18 6 5 4 4 4 3 6 8 11 11
62 64 63 67 66 72 74 80 79 63 69 92 96 78 86 52 50 69 98 70 77 75 72 75 67 36 17 21 31 40 42 44 30 5 5 7 5 5 7 9 9 10 13
60 56 60 52 60 60 78 82 88 72 90 93 96 67 60 49 42 55 63 70 92 94 75 67 64 68 62 25 41 48 41 22 11 8 5 7 6 7 13 19 11 7 20
56 48 33 42 63 76 84 83 86 97 77 92 64 48 47 51 51 58 63 86 81 87 88 85 92 93 96 70 66 54 54 51 38 14 4 6 9 18 19 13 8 16 24
47 33 41 38 49 55 59 95 99 92 85 82 67 52 52 71 69 71 75 75 78 82 89 98 99 93 94 97 84 67 69 28 26 8 9 8 14 17 13 15 15 28 32
43 41 56 61 55 54 56 67 99 94 90 83 69 62 44 77 73 82 89 93 74 78 90 75 79 90 91 90 82 63 28 16 10 4 8 12 17 16 13 14 22 38 41
57 65 64 53 53 59 64 86 98 95 93 73 78 68 58 62 79 90 90 86 72 66 61 63 79 76 99 99 59 28 19 14 10 6 15 18 20 16 17 13 21 47 54
48 52 54 57 61 72 94 94 99 100 84 75 59 63 65 65 79 78 82 91 77 81 81 68 72 88 86 71 44 31 31 19 13 9 12 21 18 21 17 12 22 19 37
51 59 70 75 84 95 77 77 69 48 76 69 63 64 67 61 67 90 80 93 88 84 86 84 80 80 48 37 36 32 32 24 16 11 28 24 26 20 23 54 57 63 60
51 63 82 92 99 93 80 53 62 47 58 76 64 80 86 63 67 85 83 69 55 84 87 69 49 35 33 30 25 32 31 21 15 32 31 35 24 45 64 57 48 36 34
51 63 74 97 99 68 60 62 52 43 62 70 50 80 83 65 52 80 94 44 40 35 64 52 44 36 38 39 44 37 30 23 36 34 40 31 21 49 77 65 57 44 42
56 54 47 48 39 41 62 64 39 30 32 49 67 57 50 50 64 82 50 46 42 51 56 56 37 44 50 52 42 39 38 39 36 41 42 31 28 57 76 71 65 50 43
58 67 38 30 30 33 45 42 27 27 36 45 41 47 58 62 72 73 68 56 62 63 68 44 51 54 50 48 47 52 51 46 52 59 48 40 39 50 65 72 68 48 28
60 67 49 29 24 29 31 32 35 37 44 53 51 46 50 54 57 57 56 55 70 57 41 48 47 52 44 42 36 43 54 55 58 60 59 44 46 49 54 68 58 40 38
36 40 28 25 28 33 39 39 42 39 34 31 30 36 53 77 62 48 39 46 43 38 35 35 46 38 20 30 36 47 64 67 63 66 57 46 54 55 53 65 56 43 35
36 31 19 19 27 38 36 27 21 19 26 43 60 84 83 68 57 49 43 36 35 30 16 10 13 18 25 36 42 56 69 69 67 58 50 50 65 54 63 67 60 50 33
10 12 19 27 32 39 19 8 9 16 48 69 67 72 68 69 65 45 27 30 25 19 18 18 24 33 41 42 50 67 68 63 53 47 48 63 46 42 44 48 46 41 30
20 30 34 28 22 8 6 13 50 63 69 67 54 60 78 47 46 26 20 17 11 8 10 11 18 32 48 59 59 51 44 43 44 52 49 34 29 29 30 30 29 29 28
29 18 10 8 6 7 44 74 76 86 84 69 73 79 57 48 39 14 8 8 8 8 8 11 21 38 46 40 42 52 51 50 50 45 41 37 35 33 31 29 28 24 23
13 6 6 10 23 56 90 90 94 85 74 89 69 47 41 32 26 15 10 8 8 9 11 19 24 34 37 50 57 56 56 57 56 53 48 44 39 36 34 30 28 26 24
8 11 13 18 38 63 79 82 69 80 85 61 46 32 28 26 15 9 9 9 9 9 11 18 25 31 46 55 55 45 40 41 40 36 34 30 26 24 22 22 22 23 22
17 19 24 35 56 61 44 29 32 45 26 36 31 23 20 10 9 9 9 9 10 10 9 10 18 21 29 40 45 36 31 34 35 28 30 26 13 10 9 11 15 17 19
24 28 39 48 50 42 30 21 22 20 29 34 31 17 8 9 9 11 12 10 10 10 9 7 7 12 17 15 13 15 24 32 32 28 29 13 11 11 10 9 9 10 14
28 30 35 40 35 36 37 37 36 37 38 34 16 7 9 10 12 13 13 14 12 9 9 10 8 7 9 12 13 16 24 25 28 28 13 12 13 13 13 13 12 10 9

GFSGL_500_rhum_009.txt.gz
RH
9 22 22 18 20 32 30 46 30 33 53 56 78 90 89 87 98 96 85 68 80 73 71 64 47 30 10 14 22 32 37 38 37 29 27 23 19 8 4 5 9 7 6
10 14 18 25 38 33 50 44 37 45 43 67 89 73 63 61 87 89 92 81 100 84 79 69 72 61 56 22 13 24 30 40 37 38 54 44 27 13 7 6 9 10 7
8 10 33 41 31 33 39 41 46 55 42 52 78 87 73 50 65 54 56 63 79 81 96 76 71 76 74 68 59 28 18 22 30 33 36 34 30 19 8 8 11 12 8
27 26 33 41 42 37 41 43 46 66 77 75 71 86 84 56 45 41 46 44 48 73 99 90 76 87 95 86 75 75 62 42 34 42 44 32 50 45 26 24 16 10 7
35 25 31 39 29 25 28 32 40 52 60 68 82 88 91 73 60 46 43 56 57 66 78 77 87 80 84 87 81 81 91 92 77 66 67 45 50 53 41 28 8 10 21
22 22 34 33 26 35 40 46 50 59 63 76 76 94 97 95 64 60 48 47 65 62 78 80 82 84 96 92 92 92 96 96 96 76 66 33 31 27 15 13 18 28 20
22 26 32 31 25 41 48 58 61 67 80 90 95 86 96 88 72 67 62 57 70 64 74 74 71 82 90 90 78 94 83 90 89 85 50 48 32 18 14 7 10 20 20
28 36 45 55 60 65 72 80 74 84 99 100 99 89 91 63 61 64 61 62 75 70 77 82 75 76 78 76 80 80 85 98 97 93 48 33 22 24 15 11 15 21 19
35 39 46 49 58 72 73 76 81 96 96 91 88 84 72 67 59 56 66 69 77 98 79 79 74 73 78 79 68 72 73 78 92 50 28 26 26 26 22 15 17 20 17
55 50 53 50 54 66 63 68 87 98 100 72 58 59 61 49 63 69 79 67 58 97 91 72 82 85 66 76 86 57 67 52 42 40 33 30 33 28 21 24 25 21 18
64 62 58 53 51 57 61 72 81 98 97 89 77 63 50 36 70 77 93 83 64 58 61 78 74 61 64 65 56 56 42 38 35 34 30 40 32 26 25 24 21 18 50
62 58 63 57 53 53 53 54 58 78 94 84 59 69 44 41 50 70 95 88 58 56 71 85 65 64 73 68 73 54 44 39 43 47 45 38 34 35 35 31 28 42 66
72 63 68 55 52 47 46 50 62 64 47 35 39 50 50 57 77 77 71 60 60 67 91 71 62 66 59 58 64 54 34 45 47 47 47 44 40 36 40 35 37 50 69
69 73 80 62 53 56 55 66 67 35 36 25 33 32 42 43 49 47 51 53 54 94 76 68 56 59 61 49 30 32 47 49 39 32 42 48 43 48 51 40 36 36 43
64 68 69 66 63 62 66 71 64 50 25 30 34 37 34 31 33 38 40 50 68 65 60 59 61 53 38 28 28 36 39 38 34 30 44 54 60 67 59 42 41 38 42
68 75 65 63 66 69 73 68 46 28 25 34 36 31 26 20 32 26 38 64 81 74 61 47 41 35 24 26 26 15 12 10 22 35 60 65 70 67 53 44 45 44 45
65 63 67 71 68 64 62 48 34 14 23 40 31 14 10 12 42 60 64 76 74 62 52 42 29 22 14 12 16 22 31 41 48 47 54 67 69 58 47 47 53 48 59
64 73 65 58 58 48 37 16 18 28 33 31 8 10 23 44 59 62 67 69 68 55 34 25 20 16 15 10 11 19 33 42 52 65 74 68 56 46 52 49 42 43 46
50 61 54 42 27 13 10 22 31 24 16 8 14 50 76 74 65 63 74 56 45 31 17 14 9 8 8 10 16 32 47 51 57 54 47 43 44 49 41 30 30 30 30
58 60 48 24 15 26 32 25 11 7 6 10 56 50 80 75 69 73 56 47 34 12 9 8 8 9 10 15 20 33 42 44 47 49 48 47 47 42 36 34 32 29 27
34 21 18 25 30 20 10 6 6 10 29 47 33 40 92 79 60 43 38 30 23 12 8 9 9 10 11 18 23 31 42 57 55 54 54 51 48 45 43 40 36 32 29
17 27 27 18 14 7 8 11 17 23 45 56 58 61 64 56 36 24 23 18 10 9 9 9 10 9 9 14 20 30 44 52 46 40 42 42 36 29 26 24 23 22 22
27 19 13 7 6 10 14 22 20 26 51 48 29 26 33 38 31 20 16 9 9 10 10 9 10 9 7 8 15 20 25 39 36 31 32 32 24 18 20 14 10 11 14
8 8 8 9 12 16 17 18 36 41 35 24 18 17 25 29 26 13 9 9 11 12 11 9 9 8 8 7 7 13 15 12 13 18 23 25 16 18 12 10 10 10 9
11 10 12 13 18 22 20 23 28 32 28 27 28 30 33 28 14 8 9 11 12 13 13 12 9 9 10 12 8 8 10 12 12 17 19 20 18 10 12 12 13 12 11
14 17 18 17 18 17 19 26 27 27 30 31 26 14 21 15 8 10 11 13 14 14 14 14 14 14 15 16 13 11 11 11 14 17 18 18 12 11 13 19 19 15 14

GFSGL_500_rhum_012.txt.gz
RH
17 9 8 18 21 17 16 33 38 32 40 36 39 48 74 73 53 51 60 53 57 65 59 62 94 77 80 74 71 66 46 16 20 35 39 41 40 34 32 25 19 17 18
17 6 5 6 9 9 24 40 40 39 43 44 59 55 73 78 73 55 46 41 37 48 58 50 55 71 90 78 79 74 76 65 36 23 23 32 43 37 38 31 30 32 27
16 9 10 12 19 32 37 35 41 38 53 56 56 66 72 74 84 78 83 67 52 47 46 60 63 67 92 96 93 88 94 84 79 70 56 34 36 30 38 47 40 34 33
20 25 17 19 28 40 28 37 33 39 53 60 66 70 80 76 86 87 86 80 60 50 44 58 78 70 68 76 76 88 80 88 88 85 76 89 94 95 82 50 39 34 24
19 26 20 21 34 31 33 39 45 50 56 63 72 86 96 71 83 76 62 62 59 50 47 55 65 70 69 81 80 93 99 95 88 93 96 92 83 60 58 58 42 29 24
26 23 28 22 40 30 30 37 54 57 59 64 84 94 89 89 85 89 85 60 50 45 46 50 56 68 74 79 84 75 73 70 78 84 80 74 75 80 73 84 67 46 34
55 35 25 34 46 51 57 60 52 51 58 69 79 93 93 95 85 78 65 62 57 54 55 55 61 75 79 81 89 92 78 73 70 66 67 79 75 93 93 90 55 30 30
66 58 25 33 43 44 42 42 39 48 60 68 80 95 100 95 100 90 76 57 43 53 62 65 67 75 95 78 82 89 84 84 78 75 81 78 97 84 60 42 40 32 37
65 51 32 31 36 37 44 43 46 51 62 69 69 93 100 83 92 78 54 59 48 64 67 71 70 97 89 74 77 88 94 79 62 70 58 55 47 44 40 36 36 40 34
62 55 44 39 38 46 49 47 53 54 62 59 59 55 53 59 49 41 53 60 51 52 64 91 90 69 68 64 71 84 70 67 62 64 66 58 48 41 41 43 41 35 31
59 57 56 58 56 62 65 67 62 60 64 64 54 57 66 52 37 48 53 55 55 70 78 90 96 73 52 68 85 93 78 74 74 67 71 63 39 44 42 39 42 38 32
62 60 57 63 68 79 80 81 72 66 63 58 58 67 74 51 47 44 39 38 42 52 61 54 57 57 70 82 97 91 87 63 64 60 38 41 40 38 30 45 46 41 36
64 57 67 73 79 93 84 82 83 73 74 66 65 72 72 57 48 38 32 34 37 41 45 55 57 92 64 98 76 76 70 59 45 32 35 36 39 37 30 43 51 50 52
56 61 75 81 84 91 95 89 83 73 71 68 75 73 61 36 22 23 33 31 29 32 31 34 95 67 97 92 67 55 44 34 34 23 18 16 12 17 31 52 56 56 57
60 66 69 68 72 77 74 70 71 70 68 71 66 66 47 28 18 30 33 12 11 28 52 61 80 82 78 63 52 42 30 19 13 16 20 26 36 41 50 66 62 59 50
61 64 68 68 69 73 68 70 69 66 72 66 54 32 10 14 30 30 9 14 34 53 60 63 62 66 65 49 20 15 12 9 7 8 18 35 45 55 68 76 69 54 49
66 78 75 68 78 77 73 68 66 66 62 27 11 10 20 25 19 9 32 50 56 59 59 67 62 45 29 17 12 8 7 8 9 12 22 42 61 66 62 54 48 51 46
90 75 80 86 80 70 69 73 65 52 29 16 25 27 24 13 8 34 42 61 66 64 65 60 44 23 12 8 8 8 8 10 15 27 42 45 44 43 43 49 50 38 30
83 85 94 95 77 56 71 66 52 24 16 28 23 13 6 10 29 31 54 65 62 57 40 23 19 11 8 8 8 8 9 15 25 33 40 53 52 49 48 43 41 40 38
86 94 90 95 91 84 70 27 16 19 19 19 12 10 15 26 25 40 57 61 44 28 19 18 10 8 8 8 8 7 8 16 24 37 54 49 50 54 52 49 44 39 35
92 94 99 91 82 38 17 23 24 24 15 10 9 23 31 23 29 25 38 46 22 17 14 9 8 9 8 8 7 6 6 13 20 32 42 42 38 40 38 32 24 18 17
90 96 77 33 26 27 30 23 19 9 9 10 23 14 26 36 24 16 22 24 18 15 8 8 10 9 8 7 7 8 7 9 15 15 22 29 28 27 25 22 17 16 12
83 42 34 39 37 31 20 16 9 9 18 46 27 22 31 25 20 16 23 21 14 8 8 11 12 11 10 8 8 11 11 7 8 11 11 11 12 14 16 16 12 10 11
46 39 32 26 17 16 16 21 64 56 44 31 34 27 34 25 24 26 24 18 9 8 10 12 13 13 13 12 13 15 14 11 10 9 11 14 15 15 16 11 11 12 13
25 20 17 20 17 16 17 14 18 26 25 28 25 17 19 29 28 22 20 11 8 9 11 12 12 13 14 14 16 18 18 16 18 17 14 13 12 12 14 11 13 18 17
21 18 14 13 12 13 18 20 16 12 12 18 24 31 32 30 19 10 13 8 8 11 11 11 13 14 15 17 17 20 20 20 20 22 23 21 15 13 14 11 15 17 17

GFSGL_500_rhum_015.txt.gz
RH
20 15 11 8 7 12 15 11 28 34 36 37 34 49 50 61 70 78 72 82 85 79 67 63 62 52 56 58 62 87 83 75 61 65 67 64 51 30 22 22 25 27 27
22 16 7 6 5 10 11 20 35 40 40 38 53 51 55 65 69 72 65 64 63 55 49 51 52 57 55 62 67 65 99 88 76 77 75 69 68 63 65 64 53 50 48
22 18 10 9 12 14 30 35 28 36 34 36 46 56 65 77 87 86 75 67 56 43 48 43 38 41 57 55 56 64 73 76 72 75 77 79 82 73 74 73 77 82 82
32 20 18 15 25 36 35 22 32 36 34 46 51 51 65 77 84 94 94 86 62 53 49 49 45 42 82 52 58 71 81 84 76 77 85 76 81 80 71 69 80 80 84
45 40 22 20 28 35 29 31 42 42 43 46 41 45 56 79 81 67 84 92 93 64 54 46 44 48 60 55 63 76 92 98 88 89 78 67 75 82 65 69 64 62 74
55 59 28 19 24 37 31 33 35 39 38 41 44 54 64 75 79 74 79 70 67 54 41 44 47 59 60 69 70 67 86 88 73 76 84 73 85 73 68 68 67 62 74
41 52 57 29 24 34 41 42 49 51 44 42 42 52 58 62 82 71 61 62 47 40 44 54 53 57 70 73 70 89 97 92 90 71 88 96 88 83 68 60 52 52 48
53 50 69 50 30 38 36 41 39 42 48 47 47 66 61 65 63 59 63 60 52 41 50 55 54 64 67 74 86 93 89 92 92 79 95 98 84 74 64 56 52 55 54
37 68 73 66 36 34 38 40 43 50 53 59 66 66 67 58 61 65 64 71 65 46 42 33 46 58 67 78 82 96 85 82 92 100 98 96 85 81 61 56 56 43 30
36 72 74 66 60 38 43 48 54 54 70 81 66 66 63 66 71 69 73 76 54 40 32 30 29 30 43 57 80 97 92 88 89 92 96 98 93 65 57 44 32 35 20
57 77 77 67 61 50 52 64 67 87 81 71 65 57 61 75 73 70 71 68 41 22 21 27 30 33 42 50 62 75 87 93 94 99 98 79 70 52 35 32 28 32 30
48 66 76 67 59 58 64 76 88 83 86 70 71 75 80 78 73 72 63 56 42 35 24 29 34 40 35 47 61 70 85 72 96 96 76 63 45 32 24 16 14 12 15
59 72 72 65 65 69 74 81 85 87 90 82 85 76 76 75 69 68 48 36 24 15 19 29 34 40 40 40 52 98 94 84 83 63 47 31 16 13 16 19 24 32 34
64 68 68 75 72 72 70 81 87 92 85 75 76 75 70 72 65 47 27 13 11 16 29 19 12 17 34 42 49 57 65 67 56 34 26 12 8 7 10 18 35 46 56
60 68 77 92 80 79 87 91 81 82 78 79 78 70 71 69 42 28 13 18 22 20 13 12 19 30 44 52 60 63 47 20 12 9 8 8 9 10 16 34 47 60 67
71 81 86 72 69 85 87 84 82 86 75 75 74 74 71 52 33 15 21 21 15 9 15 27 38 48 51 63 56 33 13 9 7 6 7 8 13 22 35 44 47 49 50
73 77 68 67 72 79 88 93 86 84 73 76 84 82 74 48 18 21 19 11 8 13 20 32 52 57 46 24 18 12 7 6 5 5 5 10 21 36 48 49 47 49 53
76 92 94 90 87 91 93 86 87 78 79 78 91 83 45 16 21 18 12 10 14 15 33 50 50 33 21 14 8 8 7 6 5 5 10 19 32 52 54 54 50 47 46
90 94 85 82 96 99 98 95 94 92 93 95 87 40 18 22 17 13 11 12 11 16 24 29 20 17 12 8 8 7 7 6 6 6 10 18 30 41 39 41 48 46 40
95 92 91 86 75 77 90 95 88 81 86 56 22 24 23 18 14 12 13 16 19 15 15 21 15 11 7 9 8 8 7 8 9 7 8 13 16 29 35 36 35 31 23
84 92 86 90 91 93 87 91 64 84 50 29 24 22 18 14 14 17 17 22 17 12 17 19 13 7 10 10 10 10 10 11 13 10 7 9 11 11 12 15 15 12 13
93 84 71 87 76 76 80 92 86 54 35 32 26 18 13 17 13 12 22 25 16 16 21 18 8 8 12 12 12 12 13 15 15 14 11 9 9 11 14 14 15 15 10
90 89 79 76 89 99 93 66 38 35 26 21 18 26 22 21 16 16 16 21 20 22 21 12 7 9 11 12 12 12 14 17 17 16 17 18 17 15 13 11 13 12 11
97 97 97 96 63 71 89 56 35 24 26 20 21 14 18 24 15 13 14 18 17 20 13 9 7 9 10 11 12 13 15 16 18 18 18 18 20 22 19 13 13 12 14
73 51 66 89 52 38 24 24 24 19 15 14 13 18 31 16 10 12 17 20 23 10 10 7 8 10 10 11 12 13 16 18 19 20 20 19 20 23 22 16 13 11 13
35 36 34 33 25 22 20 40 84 18 47 25 16 17 13 9 11 17 18 20 8 8 7 7 10 11 12 14 14 15 16 18 19 20 21 22 21 22 26 24 16 11 12

GFSGL_500_rhum_021.txt.gz
RH
33 19 14 12 10 12 20 47 46 33 19 23 26 22 26 33 34 43 47 54 61 63 64 64 57 51 46 40 30 31 33 41 56 49 51 58 59 69 64 68 77 76 78
35 22 20 16 14 10 13 28 32 30 14 27 24 18 24 31 40 56 51 54 61 63 64 64 58 51 40 33 28 36 36 40 42 45 47 53 61 62 64 70 70 61 58
34 25 21 15 14 7 6 8 23 15 18 27 25 21 23 38 49 42 45 60 64 78 86 78 78 51 42 34 35 31 32 40 44 42 47 52 62 67 71 77 75 81 71
42 30 25 16 17 10 6 5 10 12 24 22 32 32 29 52 45 42 42 54 62 85 93 94 69 54 44 40 35 31 38 39 40 36 42 50 71 86 64 56 63 61 91
54 40 37 36 25 16 12 9 9 15 26 28 38 36 35 52 48 41 45 50 69 87 86 83 65 58 38 36 31 28 37 38 38 37 46 63 92 97 87 74 65 71 78
71 44 54 44 35 30 21 15 16 22 24 25 35 42 41 48 50 44 63 60 65 82 83 70 65 52 39 36 29 27 41 42 44 46 56 76 56 100 95 97 96 96 78
60 52 61 56 44 23 38 24 20 22 20 26 34 43 42 50 50 65 82 72 68 79 79 71 51 41 31 30 31 32 38 36 46 93 70 64 46 88 88 95 98 94 94
67 73 73 57 38 22 35 39 30 26 27 30 35 40 51 56 60 70 78 73 71 79 78 81 47 36 29 24 19 20 16 25 38 48 56 67 63 100 92 97 91 84 94
51 62 60 53 52 31 36 49 54 47 32 33 35 51 57 62 70 79 83 71 81 79 76 68 46 35 31 21 14 14 19 33 46 72 78 71 69 85 78 44 48 97 72
54 61 83 78 69 55 60 67 70 66 53 40 45 56 54 68 79 75 78 81 87 75 78 68 60 55 40 18 14 18 29 41 26 36 58 43 48 44 44 54 59 47 29
75 71 95 83 73 64 61 68 70 72 68 53 46 55 58 65 78 77 86 81 79 79 71 70 73 52 26 17 17 17 13 10 11 11 11 20 36 42 53 35 13 7 6
94 83 93 91 86 78 60 56 61 73 73 69 61 53 56 70 79 90 87 75 72 70 79 78 76 51 17 16 16 14 10 9 9 13 22 32 30 20 11 7 5 5 5
76 94 83 79 92 85 74 66 63 62 88 79 69 62 61 66 79 93 97 72 76 91 79 78 76 46 15 17 14 10 7 7 9 15 21 15 12 7 6 6 6 6 7
62 63 62 73 70 54 80 96 68 58 74 81 87 94 76 64 81 89 92 83 78 78 78 79 78 56 17 16 11 6 6 5 8 12 11 7 5 6 6 7 6 6 10
48 50 54 72 74 94 90 58 50 56 73 89 94 96 97 89 85 89 73 70 72 80 76 97 91 39 18 14 8 5 5 5 9 8 5 6 7 7 8 7 7 8 12
48 44 48 59 78 77 65 61 85 80 79 97 96 96 97 91 72 86 68 82 73 79 47 54 55 20 17 12 5 5 4 7 8 5 6 6 7 8 10 9 8 9 10
39 52 53 82 92 88 95 92 60 96 88 96 87 81 31 22 70 91 98 89 80 70 44 21 19 19 15 7 5 4 4 8 6 5 6 7 7 8 9 11 11 12 11
25 50 56 54 79 96 93 89 94 64 94 93 100 65 36 62 100 77 91 99 84 82 55 25 19 17 11 6 5 4 5 6 5 5 6 8 9 8 8 11 13 15 16
27 45 84 86 98 97 96 88 96 87 47 37 51 46 60 87 74 84 94 89 91 89 86 25 18 16 7 6 5 4 6 5 6 7 8 9 10 9 8 10 13 16 18
88 42 94 98 98 86 94 96 71 47 56 79 83 77 85 84 79 94 92 98 84 61 31 21 19 10 6 5 5 4 5 6 7 7 8 9 10 9 9 10 13 16 19
95 87 84 95 88 81 64 57 96 99 100 97 87 89 92 97 92 97 84 68 56 32 22 20 17 8 6 6 4 4 4 6 8 8 8 9 9 10 11 12 14 15 18
86 96 83 62 66 58 60 69 57 60 92 100 99 98 86 80 99 94 72 89 47 21 20 20 13 7 6 6 5 5 4 6 8 7 8 9 9 11 13 13 14 16 16
59 70 95 98 98 95 95 91 90 94 100 97 91 75 68 79 78 74 90 61 23 22 21 16 11 7 6 7 5 4 5 7 8 7 9 9 10 13 15 16 16 16 16
100 100 100 100 91 90 96 93 98 95 91 77 73 58 81 87 85 95 48 20 20 19 15 13 10 6 8 7 6 5 6 8 9 8 10 10 11 14 16 17 18 17 17
92 86 93 100 100 97 96 97 92 91 97 82 89 91 80 85 68 34 24 22 20 18 15 13 8 7 8 7 6 6 6 8 10 10 12 13 10 14 16 18 18 19 18
97 97 87 88 97 99 97 97 97 98 98 91 90 94 79 69 49 26 26 52 63 18 17 15 9 8 9 10 6 6 7 9 10 11 13 15 12 11 14 16 18 19 20

GFSGL_500_rhum_024.txt.gz
RH
32 29 21 17 18 20 20 22 37 50 43 35 22 14 20 26 28 34 43 56 52 51 61 71 71 72 49 36 38 33 29 34 36 39 39 40 43 52 58 63 73 70 70
40 37 36 24 14 12 11 13 21 45 43 32 20 20 22 29 34 36 57 48 54 58 61 76 82 66 56 39 38 34 32 32 32 31 30 34 36 45 63 71 85 84 88
42 36 34 30 22 19 11 8 11 17 34 30 18 26 24 29 38 40 51 42 54 52 64 82 82 59 64 52 32 26 24 24 29 30 28 33 39 44 59 72 90 92 76
60 40 32 31 26 19 14 8 6 8 15 28 19 26 26 36 39 47 44 44 53 65 69 81 80 76 63 27 29 22 22 23 26 26 28 31 34 38 44 49 46 91 85
72 48 42 41 40 31 23 14 10 7 7 13 17 25 23 31 36 46 52 49 71 69 66 85 87 93 78 38 26 25 22 19 16 14 22 23 42 47 58 46 35 46 99
75 66 72 50 58 52 44 37 19 13 11 11 17 26 22 31 45 54 60 47 65 80 87 84 88 86 63 34 33 26 20 15 13 13 15 29 35 56 56 49 52 42 68
89 81 60 68 60 62 59 52 32 24 18 17 24 27 30 48 57 58 59 46 50 83 88 80 92 69 43 48 41 25 16 13 12 13 15 18 22 30 50 61 63 70 99
82 92 73 50 56 67 74 66 37 43 35 24 28 32 39 52 57 63 58 49 49 65 80 84 82 71 57 48 34 21 14 16 13 12 11 10 12 11 37 54 40 52 56
53 46 50 61 66 73 78 63 39 51 58 46 36 36 33 40 44 52 45 49 51 63 81 70 76 70 67 58 37 18 15 14 14 12 10 9 7 10 21 16 23 28 24
63 64 76 78 84 70 76 73 55 58 64 66 66 62 46 36 37 41 55 55 49 77 81 66 81 72 61 60 46 19 16 16 14 11 8 6 6 8 9 9 9 8 7
59 60 79 91 93 95 93 83 74 68 65 68 67 61 69 69 44 42 48 51 57 69 56 75 81 78 74 78 65 26 17 16 12 8 5 4 5 7 7 5 4 5 5
82 77 68 67 74 87 76 77 83 79 79 86 86 78 69 65 69 53 52 53 58 75 70 81 76 76 62 74 86 63 20 16 10 5 4 4 8 7 4 5 5 6 7
95 90 77 87 94 96 90 87 93 93 86 73 68 70 78 78 79 73 61 70 75 76 80 85 70 74 50 57 85 58 18 15 7 4 4 7 7 4 4 5 5 6 8
85 95 88 64 80 90 81 84 100 78 59 81 83 91 72 62 75 87 85 86 88 85 90 84 77 77 41 29 28 17 17 11 5 4 4 6 4 4 6 6 6 6 8
48 74 84 91 75 52 43 67 70 50 86 100 100 99 83 92 93 95 96 96 92 86 84 77 92 65 56 21 20 16 16 7 4 4 5 4 4 6 6 7 6 7 8
36 36 37 38 42 44 52 55 59 71 61 93 99 60 96 84 97 96 88 94 94 66 79 93 93 81 73 55 33 17 12 6 5 4 4 4 5 6 7 7 7 8 8
40 38 28 25 24 27 37 63 70 60 69 83 90 91 72 78 96 88 96 82 73 89 83 82 89 87 78 87 40 17 9 6 4 3 4 4 5 6 7 6 7 8 10
36 33 30 28 27 27 23 24 29 41 67 74 89 94 92 91 87 95 88 86 95 96 94 98 96 96 66 52 20 16 6 6 4 3 4 4 5 6 6 6 7 9 11
32 27 22 21 20 20 23 28 34 45 54 71 88 96 97 96 96 93 89 90 77 72 92 79 84 87 53 23 18 12 6 6 4 3 4 4 5 6 7 7 7 9 11
15 25 34 34 70 78 53 32 32 35 55 86 96 96 97 96 92 90 63 74 91 97 99 99 83 66 33 18 18 8 6 6 4 4 4 4 5 7 7 8 7 9 11
30 27 64 94 98 96 96 76 63 70 85 94 91 92 96 98 44 46 76 93 98 99 100 98 91 88 32 19 15 8 6 6 4 4 4 4 5 7 7 8 8 10 12
31 30 64 74 93 92 97 96 93 84 78 77 72 89 84 42 74 88 96 99 93 92 88 88 96 67 22 23 16 9 6 7 4 4 4 4 5 7 8 8 9 13 15
23 46 36 48 77 92 96 86 62 73 67 64 76 73 92 94 97 88 68 76 75 84 91 90 58 24 22 22 19 10 7 7 4 4 4 5 5 6 8 9 11 15 15
43 52 75 54 73 82 78 62 67 82 90 92 94 96 95 74 80 80 70 80 85 96 96 44 25 20 18 16 16 10 7 8 6 4 4 5 5 6 9 9 10 14 15
62 60 60 77 78 79 96 90 97 97 92 94 92 95 90 82 77 87 88 97 99 86 67 34 26 23 19 17 14 10 7 8 7 5 5 6 7 8 10 11 10 10 13
97 98 82 83 72 80 90 96 98 81 94 96 97 100 99 99 97 97 95 96 99 96 68 34 25 42 30 16 14 10 7 8 8 5 5 7 9 9 10 13 13 11 11

GFSGL_500_rhum_027.txt.gz
RH
27 32 35 35 38 40 36 35 39 36 37 37 32 30 24 19 16 23 35 42 55 55 58 61 83 77 50 54 29 28 23 21 20 22 18 22 26 33 36 40 37 46 50
38 33 32 27 21 19 18 17 20 24 30 48 48 35 27 19 20 24 32 46 51 52 56 52 74 68 54 51 26 21 21 22 21 20 20 20 18 22 28 39 37 36 44
34 35 36 35 27 35 23 16 13 12 10 22 40 39 28 21 22 21 31 41 43 46 46 52 57 70 65 62 24 23 22 21 20 18 15 15 15 18 24 40 35 34 33
39 36 41 38 32 32 25 15 14 11 7 9 21 34 28 22 26 22 28 38 37 39 42 59 72 80 77 75 32 27 24 20 17 15 12 12 12 12 18 20 34 35 43
54 48 38 48 45 37 28 32 30 24 15 8 8 17 22 17 25 25 28 33 35 34 41 60 70 79 86 66 39 35 33 23 16 14 12 11 11 10 11 12 12 15 23
54 58 53 43 49 47 41 53 54 50 39 17 11 12 13 13 24 25 26 28 32 30 44 65 68 75 83 76 57 49 34 23 18 17 15 12 11 11 10 8 7 10 21
71 72 71 50 66 71 54 54 63 60 61 38 20 14 15 18 25 23 27 30 29 32 46 48 47 71 86 82 70 63 46 33 22 19 14 13 11 10 6 5 4 5 10
79 81 78 80 59 62 77 68 63 65 73 59 36 34 21 24 29 26 30 28 29 35 46 49 47 61 80 78 72 63 58 47 31 21 15 14 10 7 5 4 15 5 7
47 56 47 80 81 53 53 54 62 80 79 59 49 55 45 33 32 37 37 30 28 38 44 46 51 58 69 77 78 70 65 62 59 31 16 13 8 5 4 7 7 5 4
49 32 55 64 79 85 84 90 83 76 69 64 52 62 64 61 55 42 46 41 38 40 45 50 51 50 74 66 75 66 58 74 78 70 19 13 7 4 4 4 4 3 3
52 40 52 56 64 84 95 98 96 80 87 78 66 63 67 67 66 65 65 58 56 44 46 62 65 64 65 78 74 68 61 56 80 91 19 12 6 4 3 4 3 4 5
44 53 52 47 50 62 68 93 71 86 96 89 94 72 70 87 75 59 50 56 63 75 71 74 66 68 71 75 74 79 50 43 70 63 16 9 5 4 3 3 3 5 6
46 54 56 67 58 56 43 55 76 100 53 89 82 76 88 96 96 95 96 90 73 62 70 88 93 93 92 92 87 80 61 24 24 18 14 7 5 3 3 3 4 5 5
22 27 63 74 77 79 68 65 50 59 80 74 62 81 73 54 70 59 90 91 84 90 88 93 95 98 88 96 93 88 73 25 21 18 12 6 4 3 3 4 5 5 5
48 42 52 62 64 64 52 79 69 53 84 87 52 85 86 55 63 59 77 96 87 97 96 95 89 91 74 89 93 92 82 35 58 28 11 6 4 3 3 5 6 4 5
30 28 32 37 38 46 50 50 64 62 66 79 71 62 43 49 56 43 92 100 89 84 97 96 95 85 58 89 95 99 86 56 93 26 11 6 4 3 4 5 5 4 5
30 30 28 29 30 29 26 25 26 28 46 51 49 53 47 53 59 84 95 100 97 97 94 96 73 34 56 83 90 96 83 87 61 18 10 6 3 3 4 5 5 5 6
33 27 26 26 27 26 25 29 33 30 31 31 30 38 71 99 90 97 81 84 86 97 96 92 82 53 50 73 74 72 72 46 21 16 8 5 3 3 4 5 6 5 6
31 28 27 26 25 29 30 33 35 33 29 29 31 33 34 32 33 45 56 71 84 94 97 85 60 48 67 85 70 67 55 27 19 14 6 5 3 3 4 5 6 7 6
31 29 27 32 32 31 31 26 25 29 41 43 40 37 42 58 60 64 59 63 90 91 95 95 82 64 93 83 81 77 58 25 19 10 6 6 4 4 4 5 6 7 7
34 37 33 29 16 18 22 23 28 89 96 97 96 94 97 85 76 74 73 99 94 70 69 83 86 89 85 95 97 78 74 23 18 9 6 6 4 4 4 6 6 7 7
46 40 40 24 18 14 29 22 52 92 92 84 96 95 89 92 83 95 80 94 72 83 97 97 74 63 74 75 74 80 34 24 19 12 7 7 5 5 4 5 6 8 8
58 44 32 20 18 27 36 49 64 82 77 74 73 87 95 97 96 97 86 71 89 97 90 82 69 63 60 52 51 35 24 22 18 14 7 7 7 6 5 6 7 7 8
47 33 16 22 39 46 59 57 58 68 86 95 90 96 87 73 82 79 88 92 90 82 78 63 54 50 65 59 37 22 20 18 19 15 8 8 8 6 5 5 8 8 9
22 29 31 36 57 54 51 66 85 78 78 86 97 94 91 95 96 95 79 78 75 78 68 61 72 79 80 72 33 25 24 20 18 17 10 8 8 6 5 5 7 9 10
48 48 49 68 84 75 54 58 75 79 92 95 92 73 90 90 83 74 83 78 78 76 72 71 83 91 76 62 40 28 33 36 20 16 12 8 8 8 6 5 7 9 10

GFSGL_500_rhum_030.txt.gz
RH
26 22 22 27 32 37 40 41 37 32 34 34 29 25 26 32 26 12 16 17 19 24 34 48 58 69 64 56 30 24 20 18 16 16 12 12 10 9 11 14 14 26 25
36 32 24 21 28 32 37 40 38 34 29 31 34 37 40 40 33 15 16 19 20 24 33 40 50 69 71 67 28 22 24 23 23 17 14 11 10 11 10 11 12 25 23
44 38 24 22 24 26 20 16 14 14 13 11 11 16 36 48 35 18 17 20 20 22 29 36 49 63 66 72 71 39 29 29 26 22 17 15 11 10 10 9 8 8 9
51 47 33 25 25 28 32 20 14 14 11 11 8 8 17 35 34 22 16 18 22 18 26 35 45 62 62 69 71 47 38 42 42 27 20 17 16 14 11 10 8 6 5
55 48 43 39 36 27 33 26 26 28 43 38 23 13 8 16 28 26 17 17 21 21 23 34 41 54 65 73 78 73 62 59 43 44 33 24 17 15 13 11 7 6 3
53 47 62 54 51 35 37 37 37 45 58 60 60 48 22 10 14 18 17 18 18 19 24 29 40 47 38 48 77 81 80 70 67 60 51 38 24 17 17 12 7 4 4
47 67 66 65 67 62 53 59 41 48 62 58 62 65 40 21 13 13 14 16 14 21 25 27 30 31 34 42 63 74 77 82 74 65 71 63 62 50 35 12 9 14 18
33 64 75 58 74 75 66 72 77 51 52 63 64 71 64 37 36 20 20 24 21 20 24 26 32 36 36 43 49 50 73 69 68 67 82 69 73 76 32 12 6 5 8
29 66 77 71 65 64 79 81 77 81 72 61 67 79 72 58 53 48 31 28 25 23 27 26 27 32 40 40 48 51 74 68 66 75 77 85 68 66 34 11 5 5 8
36 65 67 62 83 68 73 84 88 65 59 50 66 71 82 62 50 62 59 53 44 40 36 38 42 42 48 51 48 56 56 70 68 72 72 56 38 54 17 9 4 4 3
54 61 61 44 47 46 66 84 83 85 73 69 66 65 65 69 60 52 58 54 60 68 64 65 61 54 57 56 54 66 81 79 84 67 64 64 42 18 15 7 4 3 3
14 20 24 22 44 37 61 58 57 51 50 54 95 74 76 49 61 68 59 59 68 60 63 50 47 57 73 70 59 60 84 94 82 73 71 70 59 22 15 7 4 3 2
13 18 20 29 43 24 29 35 26 33 48 45 41 68 77 64 76 90 66 76 85 82 81 79 77 76 76 88 75 82 83 86 88 88 84 76 78 42 18 7 5 3 2
11 13 15 21 23 24 48 60 54 61 63 63 64 64 66 64 61 88 75 88 85 81 74 72 98 95 96 98 93 94 94 90 95 90 82 80 82 64 26 7 5 3 3
16 16 16 16 20 20 21 33 33 71 58 71 69 62 70 60 77 72 91 87 72 91 68 70 96 94 92 95 97 96 95 91 89 67 79 93 85 71 22 7 4 3 3
22 20 22 22 23 22 22 22 20 24 24 29 31 34 33 35 38 63 75 88 78 66 87 92 87 96 89 92 96 96 96 95 72 72 72 88 93 44 16 8 4 3 3
26 26 28 34 31 27 25 28 26 27 30 29 31 38 29 27 43 65 76 79 80 83 76 82 69 86 92 95 93 97 96 84 53 66 91 98 75 18 14 6 4 3 3
30 28 27 28 28 29 28 25 23 23 23 25 27 31 31 28 34 41 47 50 55 55 47 75 94 97 91 80 78 87 94 69 82 89 93 79 28 17 11 6 4 3 3
31 30 32 33 32 30 27 25 24 25 24 25 30 30 29 32 36 43 45 50 59 61 67 88 96 95 76 79 95 87 73 68 86 97 88 45 20 17 10 6 4 3 3
40 38 36 35 36 33 27 24 23 23 27 28 24 16 17 21 31 37 55 60 75 76 85 97 90 75 63 80 96 94 84 95 98 82 65 48 23 18 9 6 6 3 4
44 41 38 32 31 30 24 21 25 30 28 22 12 10 13 39 72 97 96 98 97 93 94 95 76 69 88 95 81 74 94 96 94 91 83 68 23 16 8 7 6 4 4
37 34 31 26 28 29 24 28 34 35 28 14 14 15 29 51 75 93 92 98 97 94 89 91 94 94 95 84 67 80 90 86 89 92 90 39 24 16 10 7 7 4 5
46 39 37 27 31 46 50 49 39 29 16 22 36 32 53 58 60 77 93 97 97 96 91 91 93 89 96 96 86 73 76 74 86 91 51 26 24 19 13 8 8 7 5
54 44 44 48 56 58 56 48 31 27 51 58 57 59 67 69 63 85 96 98 98 96 94 83 95 96 85 70 68 71 75 80 79 44 24 21 19 21 15 8 8 8 6
48 48 50 56 56 54 38 29 25 49 65 59 52 59 69 68 80 78 78 77 79 86 93 91 86 85 79 74 88 89 92 76 44 27 23 22 20 19 18 10 8 9 8
49 52 58 67 58 46 49 51 53 59 56 73 67 69 79 85 75 66 87 84 85 91 96 91 84 82 78 73 65 84 94 90 51 36 29 32 31 20 16 12 9 10 11

GFSGL_500_rhum_033.txt.gz
RH
6 12 24 23 20 18 20 22 20 16 16 16 22 26 28 28 26 32 22 10 10 14 18 22 37 46 58 62 44 24 22 20 20 21 19 17 14 13 11 9 8 6 5
15 31 28 22 18 17 24 24 25 31 30 31 31 31 33 35 38 39 37 12 12 12 15 21 28 42 50 65 65 34 25 28 27 26 25 19 19 20 16 11 9 6 4
21 33 30 30 22 20 19 18 17 19 22 23 16 11 10 16 29 44 40 21 14 13 15 16 26 36 50 58 67 69 58 36 39 41 34 29 26 28 24 16 12 10 7
46 40 39 41 27 24 22 20 17 15 14 12 12 13 12 8 8 17 39 31 15 17 13 15 21 32 41 46 57 65 66 64 59 55 55 48 45 40 41 32 22 19 16
50 51 49 54 41 36 37 24 23 16 17 36 40 48 39 14 8 7 14 20 12 12 14 16 21 28 36 56 45 45 54 64 65 65 76 66 62 58 46 50 54 49 29
51 51 60 65 58 51 50 39 30 25 31 36 33 36 39 36 17 9 7 9 12 13 14 18 18 20 28 42 36 41 55 62 69 70 68 69 66 61 79 61 59 60 37
54 51 54 64 72 70 64 65 62 45 31 38 39 40 53 63 54 28 14 10 10 11 14 17 19 22 26 26 32 31 36 45 55 74 79 74 65 73 79 57 35 45 31
62 59 56 57 59 71 75 71 74 68 60 46 46 48 48 63 68 47 27 19 14 13 13 14 16 20 23 32 34 35 35 36 57 74 70 83 76 70 70 76 44 21 19
75 59 52 34 50 73 62 65 75 78 76 77 60 52 49 42 58 70 59 52 37 24 21 20 18 20 21 23 28 31 36 38 42 63 75 90 72 78 76 79 77 32 17
71 68 62 47 37 65 74 59 62 60 77 80 74 61 52 47 54 60 72 67 56 57 46 41 42 39 32 30 30 44 41 48 54 53 72 80 80 86 73 74 84 65 30
70 63 57 49 26 49 61 42 55 40 42 47 60 60 49 48 56 78 87 89 69 80 75 61 52 54 64 75 66 65 64 64 63 67 72 82 91 93 78 71 86 81 56
34 34 41 36 32 62 57 51 40 45 47 62 60 58 52 50 48 62 80 90 80 80 94 88 59 68 79 90 90 93 83 56 61 82 86 88 85 77 76 90 96 90 68
9 8 8 14 22 34 39 36 30 46 32 44 48 36 38 54 63 72 76 77 66 72 79 74 84 79 75 77 89 100 98 97 91 79 89 96 91 86 91 96 97 95 74
12 11 10 10 12 16 22 22 31 42 47 29 32 38 32 29 41 58 63 75 80 82 56 84 90 63 68 76 65 88 83 96 89 94 94 96 96 93 93 92 97 100 79
14 15 15 14 13 11 16 20 27 38 51 50 57 61 64 61 42 42 53 56 80 80 85 87 93 65 59 66 72 87 94 87 95 96 94 87 97 97 96 79 97 97 94
18 17 17 17 16 14 15 17 18 18 30 65 74 38 27 23 23 24 25 29 50 81 90 83 87 79 77 74 78 77 92 97 94 96 88 90 96 97 84 95 97 98 54
21 20 20 20 18 18 19 19 19 20 22 23 22 22 20 23 24 25 26 28 34 35 35 42 62 50 57 63 75 92 96 95 96 97 75 80 90 96 93 66 95 87 24
25 24 23 22 22 21 19 18 18 19 21 21 24 26 26 25 25 27 29 32 31 32 35 37 40 51 66 65 73 95 91 92 97 96 71 70 96 85 72 81 82 58 19
27 28 26 25 25 25 24 24 24 23 21 23 24 23 21 24 22 23 29 30 27 18 19 22 26 43 52 67 79 95 95 96 93 74 66 83 91 89 78 83 70 46 19
33 32 30 30 32 31 29 28 29 30 28 31 29 29 27 26 22 24 29 29 18 11 18 39 61 70 83 94 96 96 93 91 67 86 99 96 73 75 80 75 71 36 18
41 40 41 38 39 42 43 42 39 35 35 34 30 26 25 24 24 28 27 16 13 36 55 98 96 94 97 97 96 95 95 91 74 90 85 74 86 83 78 77 76 40 17
50 47 44 45 48 49 45 43 38 30 25 23 22 25 32 39 32 24 17 17 34 35 55 89 97 96 95 98 95 95 94 95 90 76 77 80 92 92 94 95 82 24 18
52 55 56 56 58 51 47 36 29 27 29 27 26 34 39 40 30 21 34 31 34 44 65 74 72 93 98 96 96 95 95 91 79 76 97 88 73 86 96 92 41 21 18
62 76 69 70 72 66 51 36 34 35 36 41 47 46 41 35 28 47 59 40 46 61 72 97 100 96 95 96 94 93 95 94 95 95 80 77 82 88 68 33 20 19 18
82 96 85 90 91 69 50 45 40 43 48 59 49 42 30 41 63 62 59 54 55 56 87 96 97 97 94 83 91 86 78 77 77 80 86 86 80 65 33 29 21 20 20
92 88 70 76 72 68 57 41 44 43 46 51 46 40 47 70 74 67 63 78 65 71 60 70 79 89 95 90 80 72 79 73 66 75 80 76 75 57 33 31 29 29 26

GFSGL_500_rhum_036.txt.gz
RH
3 2 3 4 8 21 20 16 17 16 16 13 13 12 17 24 29 29 29 31 11 12 12 17 21 35 41 52 61 56 38 24 26 27 29 32 26 19 26 28 26 22 16
2 3 5 13 24 20 15 16 20 23 29 28 29 24 28 30 30 33 32 36 30 10 12 12 15 21 34 45 59 61 68 65 59 36 38 37 47 48 38 42 39 30 31
3 5 6 18 27 24 18 15 15 16 17 21 27 28 22 15 10 8 9 16 33 17 12 12 14 20 25 37 52 58 66 65 66 62 66 55 52 48 56 51 46 45 37
9 11 25 38 38 35 24 26 20 17 15 12 11 9 9 8 6 5 5 8 18 26 10 12 13 14 23 34 42 48 59 55 53 52 61 68 60 53 48 55 68 64 37
12 30 59 44 47 45 36 46 43 24 17 13 15 17 17 14 10 7 6 5 7 10 10 9 14 17 17 28 30 40 52 39 47 52 47 52 71 72 59 58 56 50 48
33 43 56 54 55 55 59 55 62 53 34 23 19 22 33 40 34 18 11 6 6 6 6 6 8 12 17 16 18 21 32 33 33 36 39 43 52 66 76 76 62 66 60
42 55 56 59 62 64 70 72 65 66 69 50 31 29 36 37 47 32 20 17 17 18 14 13 11 10 11 16 18 18 19 24 30 34 37 45 42 46 52 76 74 75 77
56 57 52 60 64 59 50 64 71 78 66 72 70 62 41 36 38 50 54 41 46 46 49 54 60 35 20 16 15 18 21 21 26 30 32 41 44 40 51 59 74 83 96
61 66 60 50 52 47 34 60 65 69 75 70 72 76 84 83 57 47 42 43 45 61 67 79 66 74 65 45 38 28 26 28 34 38 40 42 49 53 57 60 71 79 91
70 73 78 80 69 59 50 45 51 68 64 60 52 60 70 74 82 86 86 87 66 76 83 74 68 83 89 74 77 64 56 56 59 72 75 61 85 79 71 91 84 94 96
77 84 81 82 84 75 68 43 43 48 58 38 28 34 41 53 60 64 58 56 55 58 58 42 71 68 78 84 92 85 85 80 74 76 88 94 96 98 95 95 93 96 96
24 61 80 80 79 76 70 63 44 22 25 35 27 32 33 50 60 46 42 54 81 74 75 80 79 88 66 61 56 61 90 82 92 90 99 94 88 96 97 96 96 95 94
7 12 27 41 45 55 44 55 33 19 35 44 33 28 51 42 34 50 52 42 52 55 64 68 72 68 75 63 75 81 65 44 45 70 88 99 100 97 96 96 96 97 97
7 7 7 8 8 9 7 8 11 15 18 24 11 21 48 56 42 29 26 41 57 54 68 74 73 63 44 39 37 56 74 87 90 100 93 94 99 98 96 97 91 82 87
11 11 10 11 11 10 10 10 9 10 12 19 19 16 16 29 44 46 56 39 37 36 53 46 29 46 72 47 30 32 54 61 71 81 72 92 99 93 95 95 86 99 94
12 12 12 13 13 14 14 14 14 13 12 13 14 14 17 20 28 38 31 24 24 23 24 24 28 28 30 34 36 34 38 49 58 69 89 88 97 96 96 89 84 95 99
13 14 14 14 14 14 14 14 15 14 14 15 16 18 20 20 20 20 22 25 26 24 23 19 22 27 33 34 33 38 40 43 49 86 86 81 97 96 90 100 75 73 97
22 21 19 19 18 17 18 19 18 16 17 18 19 20 22 23 23 22 22 19 21 27 23 22 23 24 24 25 28 26 21 35 51 64 74 93 97 95 96 88 86 96 96
24 25 25 26 25 23 22 21 21 21 20 20 20 20 20 19 19 20 23 26 26 31 28 24 24 24 20 21 17 19 30 44 50 66 87 93 97 88 89 82 95 97 93
27 28 28 29 27 26 26 25 24 22 22 21 22 22 22 21 22 25 28 29 27 26 26 23 19 19 15 18 20 24 61 99 93 96 97 84 96 96 84 95 94 96 93
31 31 29 27 26 26 26 28 27 29 29 27 25 34 33 30 29 31 30 29 26 20 25 23 19 17 16 14 26 39 97 97 95 97 94 94 95 95 92 96 84 85 91
27 30 30 30 35 34 35 39 37 36 35 35 34 34 34 36 38 33 27 24 20 28 38 24 18 17 20 33 71 98 96 96 96 96 93 96 96 94 95 88 78 90 94
41 38 41 42 42 42 45 46 46 43 39 40 45 56 53 50 40 32 24 26 34 42 30 27 21 26 35 49 68 71 64 96 97 96 96 94 94 97 97 94 96 90 74
48 47 48 49 50 51 53 52 48 48 56 59 57 57 56 46 36 29 31 33 41 36 33 36 39 44 47 65 70 64 75 86 86 88 88 91 92 96 98 86 75 64 59
45 56 53 55 60 61 60 54 54 59 69 71 66 61 45 40 33 30 26 34 40 35 49 62 56 50 56 64 57 77 90 94 96 97 94 95 91 93 94 83 68 72 62
61 56 58 65 76 74 64 56 57 74 73 76 64 57 49 44 32 32 33 44 41 37 44 60 58 61 57 60 73 99 96 94 90 80 81 82 81 75 74 77 73 66 51

GFSGL_500_rhum_039.txt.gz
RH
4 8 6 3 2 3 5 13 16 14 14 11 8 10 12 13 19 27 27 28 31 19 11 14 16 16 28 37 45 56 61 64 63 58 48 48 41 41 37 37 36 37 46
2 3 2 2 4 17 20 17 13 14 17 21 26 23 20 18 18 16 17 22 26 28 14 11 11 12 13 25 39 48 56 64 65 63 61 56 53 54 57 53 42 39 51
2 2 2 4 7 10 23 18 13 13 13 14 20 18 16 15 16 10 7 8 16 26 29 11 9 10 13 13 22 29 40 48 58 52 42 43 46 48 70 74 58 45 33
2 3 3 5 6 24 30 24 28 20 16 14 11 10 9 9 8 6 5 5 5 11 14 15 10 12 12 12 13 18 28 32 48 44 46 37 36 38 47 64 65 63 71
3 4 6 8 28 37 40 46 50 38 25 23 20 15 12 12 11 8 6 5 5 6 7 9 7 8 10 12 12 16 16 18 23 37 31 28 35 37 43 40 43 48 49
6 11 23 33 46 46 40 47 57 61 51 42 36 24 22 21 20 15 12 11 11 15 22 21 15 17 18 13 12 14 15 17 21 25 25 29 30 29 28 39 43 45 55
13 30 57 58 54 56 58 60 59 64 64 65 62 48 33 32 33 36 40 31 42 52 50 56 65 56 50 45 32 25 22 20 20 22 25 29 30 35 34 38 44 57 69
14 38 65 73 62 61 62 52 59 66 60 67 67 73 72 68 53 39 32 28 28 35 43 61 68 84 85 88 88 83 67 52 46 40 36 42 46 56 63 64 86 96 89
57 67 66 76 80 76 62 45 53 58 68 53 54 47 48 77 82 81 76 76 58 57 69 61 68 78 92 96 94 92 94 90 87 91 66 61 63 62 62 74 96 90 96
54 65 77 86 81 70 72 64 56 56 50 61 70 66 46 42 47 64 85 82 71 76 80 73 62 54 40 65 82 59 52 74 85 92 89 88 84 91 81 97 95 83 78
42 57 74 82 88 85 71 73 70 67 58 53 46 54 59 37 42 51 58 46 50 43 36 41 47 60 66 78 89 87 77 84 85 82 82 82 71 69 97 97 95 86 94
22 43 51 71 76 77 77 81 84 82 76 54 64 44 30 32 26 29 34 42 39 25 27 29 21 27 42 51 54 80 94 94 88 74 79 73 83 99 96 98 89 88 94
11 28 49 40 54 66 64 64 78 86 81 75 67 57 42 28 18 13 13 18 18 17 19 26 28 20 25 35 46 51 77 73 60 55 46 52 70 94 76 94 74 83 77
4 7 11 15 22 33 33 33 32 32 37 44 49 40 33 23 22 12 12 15 18 16 23 22 24 24 21 23 26 30 23 27 35 39 36 36 40 67 88 95 93 93 100
7 6 6 6 8 9 8 9 9 9 8 8 7 8 8 9 10 11 12 16 20 18 17 20 24 37 54 36 30 30 28 30 28 30 37 48 46 58 77 94 97 97 92
9 9 10 10 10 9 8 9 11 12 12 12 12 12 12 13 15 15 15 16 15 18 17 18 19 20 23 26 30 27 27 29 30 40 50 50 51 60 82 93 94 97 94
14 13 11 10 10 11 12 12 12 12 13 14 14 14 14 15 15 15 16 18 17 19 17 17 17 18 19 21 21 23 24 24 26 35 41 48 47 40 64 82 91 97 92
23 20 16 14 12 12 12 14 15 15 14 14 15 15 16 16 16 16 17 18 18 17 18 20 24 25 24 22 22 23 20 20 17 19 19 26 35 40 67 77 92 95 97
20 23 23 23 24 23 22 20 21 22 24 26 26 24 20 19 19 20 20 19 18 21 24 24 24 26 28 26 24 17 15 14 16 18 20 26 40 65 96 96 97 95 97
20 22 26 27 31 28 28 30 28 27 24 23 22 22 23 23 22 21 20 20 21 24 24 27 30 29 28 23 16 18 20 20 17 13 19 60 85 98 97 98 98 97 94
22 22 23 22 23 23 22 23 24 25 26 27 27 27 26 23 21 21 23 26 28 32 33 33 36 31 21 15 14 19 24 24 19 27 51 83 97 97 97 97 96 93 93
25 23 23 26 28 30 32 32 33 32 29 33 36 35 32 30 29 28 28 32 36 37 33 35 34 28 18 15 22 26 24 23 27 33 64 94 96 99 93 83 93 95 96
18 22 21 28 33 34 34 34 35 34 34 32 31 32 35 37 38 35 39 42 40 43 41 35 38 26 18 21 28 27 27 26 21 26 29 37 54 93 92 94 95 96 99
21 16 15 18 29 26 24 26 28 33 38 40 42 43 43 42 42 40 41 42 45 41 43 46 34 24 25 27 28 28 30 32 21 29 48 46 69 77 85 82 89 98 98
17 17 18 18 18 18 20 26 33 39 44 46 48 53 56 53 48 45 48 48 47 53 59 52 32 25 31 33 33 35 33 34 39 37 52 70 83 79 79 75 74 74 79
30 31 22 21 19 18 28 37 50 56 58 59 60 60 62 63 56 53 52 65 68 74 72 45 31 26 28 36 38 38 40 44 61 56 59 71 77 78 82 82 72 63 64

GFSGL_500_rhum_042.txt.gz
RH
5 7 22 28 13 9 9 5 4 4 4 5 6 5 6 10 12 14 21 28 29 30 24 10 9 10 12 14 22 27 36 43 53 58 63 56 43 39 41 58 64 61 55
7 7 10 10 10 5 3 12 19 17 17 17 16 16 14 13 15 18 20 24 28 27 28 24 11 13 13 15 16 21 23 32 33 39 42 41 36 35 37 40 46 56 56
4 3 3 3 3 4 15 19 17 12 13 13 12 14 16 20 24 24 20 11 13 17 21 30 19 12 16 15 16 18 18 21 21 21 29 30 34 33 38 37 37 38 38
3 3 3 3 3 6 12 25 20 18 14 13 12 11 14 13 9 7 6 5 5 6 8 14 16 11 10 10 12 18 20 23 22 23 24 27 29 30 32 37 42 39 49
2 3 3 3 5 7 30 33 32 34 25 18 14 12 10 11 10 8 7 6 6 7 9 10 11 14 16 16 18 18 17 18 19 21 26 27 29 30 30 28 33 41 53
2 3 4 6 13 40 42 41 45 37 32 31 28 25 22 19 17 18 17 14 17 26 29 36 43 48 51 51 51 51 56 57 50 37 29 28 31 33 35 42 48 49 55
7 10 10 28 44 47 48 40 45 41 46 47 50 49 44 39 32 32 42 45 52 52 51 52 71 85 83 78 76 75 76 79 83 84 75 76 67 50 45 52 59 78 89
20 24 29 62 63 58 60 54 54 56 58 55 54 57 59 58 54 50 36 33 31 29 42 39 56 68 70 87 95 96 98 92 94 78 75 74 64 86 88 81 68 82 86
18 18 55 85 79 72 65 64 65 67 61 57 64 56 54 70 76 78 50 29 29 30 55 50 51 53 61 68 50 45 40 53 90 94 93 92 94 93 93 89 89 85 75
21 19 55 89 87 79 80 79 57 60 52 64 63 61 61 57 46 48 48 40 33 35 35 34 43 57 64 66 69 81 80 89 88 84 94 93 89 85 87 90 95 72 80
20 25 74 89 94 92 88 83 78 76 69 61 59 60 52 54 47 53 30 14 27 23 38 45 44 45 39 35 37 37 44 67 82 88 95 98 97 85 66 86 91 69 67
74 78 79 91 92 96 96 87 86 84 80 74 71 66 63 61 67 44 24 18 15 18 26 32 30 27 18 18 22 29 46 64 65 66 55 50 64 45 43 50 64 79 77
36 48 61 64 72 80 83 82 82 86 82 79 77 79 80 73 69 54 44 24 16 11 11 12 13 15 18 18 22 27 40 39 36 32 30 29 31 30 31 37 41 50 75
7 10 14 25 43 60 68 72 72 70 74 68 84 90 82 73 53 35 25 24 16 13 13 11 13 21 18 16 17 18 19 21 24 25 24 25 25 29 33 37 43 65 86
8 6 8 13 18 32 34 36 36 28 14 13 18 25 28 31 33 29 20 17 16 12 12 16 19 18 15 16 17 19 20 22 24 25 23 23 26 34 28 34 40 47 62
9 7 6 7 8 9 10 11 10 10 10 10 10 10 10 10 10 9 9 11 12 16 19 16 16 16 16 16 16 18 22 24 25 26 27 28 19 19 20 24 28 30 38
19 12 8 8 7 6 6 7 7 7 7 8 9 11 12 13 13 14 16 17 16 15 15 15 16 17 16 15 16 17 20 24 26 28 26 16 18 16 18 19 23 34 44
20 19 16 12 10 10 10 10 11 12 11 11 12 12 12 13 14 15 16 16 18 19 19 19 17 16 16 15 17 20 21 25 24 22 14 14 19 19 17 19 45 52 68
25 21 20 19 19 16 14 12 12 11 13 15 15 13 14 15 16 18 25 28 31 26 21 19 19 20 18 21 23 24 25 29 25 18 12 13 10 12 24 31 71 98 97
26 24 23 21 20 20 20 20 18 16 15 22 22 24 27 30 32 34 30 25 23 22 21 22 20 19 18 21 25 27 26 30 23 20 14 13 13 21 27 28 97 97 96
24 23 22 21 21 21 22 25 27 28 32 37 40 41 39 36 32 31 28 26 26 26 24 20 17 17 24 29 31 33 35 31 24 20 14 14 19 19 18 17 24 83 90
18 18 19 21 21 21 22 25 28 32 31 31 30 30 31 31 28 28 26 26 26 24 24 22 24 27 30 29 31 35 33 35 29 21 15 16 18 19 19 18 24 53 66
15 15 20 22 23 24 23 25 26 24 26 28 27 29 29 28 28 29 30 30 28 28 33 36 36 33 37 40 35 34 35 39 32 19 16 19 21 24 22 21 33 77 96
20 15 16 25 25 28 29 28 30 33 35 34 32 33 35 37 37 38 39 40 39 37 35 36 37 40 43 40 36 44 41 40 32 21 17 17 18 26 28 35 50 72 70
25 26 21 18 19 24 26 27 30 36 39 40 41 40 36 30 29 31 34 37 38 36 38 39 45 51 50 45 40 51 50 39 32 24 18 21 24 27 36 54 68 83 84
18 20 28 31 31 24 21 20 20 24 29 36 34 32 33 24 21 21 30 39 44 46 50 53 54 55 49 53 54 58 58 43 29 24 19 16 23 28 40 66 76 80 85

GFSGL_500_rhum_045.txt.gz
RH
11 8 4 5 14 9 7 10 9 8 7 5 4 4 4 6 8 10 12 19 27 29 31 28 14 13 15 15 16 20 25 38 39 36 40 39 37 26 31 36 39 37 31
11 8 6 22 12 10 11 9 6 4 9 14 14 12 8 6 9 12 15 23 27 31 31 32 25 12 11 14 17 18 18 20 27 29 29 34 32 37 36 32 32 30 32
6 6 8 29 24 12 7 3 12 19 17 11 13 17 18 17 17 19 21 26 26 15 21 25 23 19 11 11 14 16 16 15 17 24 25 26 26 27 28 30 30 38 50
8 8 9 8 5 4 3 19 21 18 12 12 12 14 18 19 20 19 14 9 6 6 8 14 17 21 12 12 13 16 17 20 22 23 24 25 26 30 31 36 41 44 48
7 4 4 3 3 3 15 22 24 20 16 14 13 11 13 12 10 8 7 6 5 6 8 11 12 12 16 27 32 28 34 45 52 56 54 55 70 73 70 73 74 70 71
4 3 3 3 3 9 22 31 28 31 21 19 14 13 11 12 12 12 12 8 8 12 16 23 36 46 53 58 61 59 61 58 60 57 64 56 89 76 76 73 86 88 90
4 3 3 3 9 22 40 34 42 42 34 29 26 27 26 22 22 28 35 19 27 44 50 56 53 54 55 57 55 64 73 73 58 52 46 80 76 89 93 97 90 76 81
3 5 10 16 36 50 48 43 55 47 48 47 41 43 46 45 43 40 36 41 53 51 47 47 48 64 70 65 42 40 57 68 76 74 62 86 72 69 83 87 98 90 72
6 31 22 58 78 63 63 64 60 57 60 62 53 51 54 56 52 52 56 52 36 35 34 29 40 51 52 42 34 37 42 83 98 91 72 62 76 82 83 81 80 83 71
64 13 29 91 87 75 73 78 78 66 62 62 59 59 55 57 59 58 52 35 41 36 49 59 65 75 81 84 48 56 55 66 51 54 61 71 77 87 86 86 93 90 82
80 26 36 96 92 82 84 79 82 71 66 66 59 66 64 62 60 56 57 35 39 29 22 37 45 54 46 41 46 48 45 52 56 42 45 42 52 60 53 66 68 50 45
74 37 46 63 94 91 84 82 83 79 66 69 71 68 61 68 75 72 68 59 64 44 37 32 16 16 21 26 31 28 26 27 33 33 28 24 25 23 24 26 32 37 40
77 44 44 36 58 99 93 90 79 80 79 79 79 82 84 77 75 66 71 66 68 65 57 50 41 27 28 23 23 24 26 31 26 22 21 21 22 21 23 25 28 39 49
77 90 90 80 50 85 94 94 98 91 85 83 82 80 85 79 74 78 82 82 79 73 68 60 51 32 30 23 23 27 26 24 20 18 18 20 21 23 27 29 26 22 14
20 35 52 66 75 79 83 82 79 89 90 91 85 87 90 88 59 77 80 76 75 73 65 60 43 30 28 27 24 24 20 18 19 22 21 22 24 26 26 26 18 9 9
12 10 10 23 50 59 62 65 67 66 74 78 82 76 71 49 29 24 25 27 24 17 18 21 17 18 23 22 22 20 21 20 23 20 17 19 23 26 25 22 17 11 7
23 21 15 9 7 7 10 13 21 32 47 60 52 37 26 24 24 21 13 11 10 11 12 17 17 19 21 21 22 21 22 24 20 14 12 16 22 20 23 19 14 8 6
26 28 24 22 16 10 9 8 7 7 7 8 8 8 9 8 8 8 9 12 14 17 16 16 18 20 22 28 29 24 22 20 16 13 12 16 22 22 22 21 15 10 7
20 23 24 24 23 20 14 11 10 9 9 9 9 10 10 11 11 12 13 14 15 16 16 17 22 31 32 27 22 22 21 19 15 14 17 19 23 21 22 20 17 11 8
24 22 25 28 28 24 22 21 19 17 15 14 15 17 18 18 20 21 21 21 20 21 23 31 35 34 29 24 22 21 21 19 15 16 27 25 21 21 24 21 15 12 8
29 26 29 33 32 29 28 26 23 22 23 22 23 22 23 28 27 28 36 42 43 45 44 42 35 31 27 26 25 24 22 15 14 23 32 29 27 28 28 22 16 13 11
37 34 32 32 33 32 30 28 26 25 25 24 24 26 30 32 34 36 38 40 40 39 39 36 32 28 25 24 23 21 16 16 22 26 25 24 32 39 35 27 17 13 13
43 38 35 33 31 28 25 24 24 24 24 24 24 25 26 28 32 34 31 30 30 29 28 27 25 24 24 23 19 17 20 22 28 31 21 30 35 45 38 30 22 15 15
39 33 28 24 21 20 21 21 19 19 18 19 21 21 23 24 24 24 26 28 31 31 29 28 28 28 23 20 18 17 19 26 26 27 37 38 39 47 46 32 25 20 17
32 31 25 20 18 16 17 16 15 14 16 16 20 24 22 22 23 25 26 27 32 32 30 29 29 27 26 20 19 17 18 17 21 36 41 44 51 50 43 39 28 26 24
31 22 21 23 24 24 22 19 16 14 13 15 21 24 22 23 25 24 23 23 25 30 36 40 35 24 21 18 20 21 27 34 37 41 40 55 49 48 41 37 33 30 27

GFSGL_500_rhum_048.txt.gz
RH
8 9 10 10 10 9 9 10 10 10 10 9 9 9 9 9 8 8 10 12 19 25 29 31 18 9 9 12 13 14 17 20 20 20 20 24 28 32 34 32 32 37 49
7 7 7 7 6 10 10 9 10 10 9 8 6 4 4 4 4 6 10 12 21 28 32 29 25 13 10 11 12 13 16 20 20 21 24 24 25 29 31 34 40 46 54
8 12 11 6 4 13 8 8 10 8 5 8 9 11 11 9 11 11 12 18 26 31 25 20 16 20 9 10 11 13 13 15 19 26 31 32 36 50 63 63 68 82 80
14 14 13 6 15 11 8 9 8 6 18 18 18 20 23 22 20 22 25 28 24 14 10 10 14 20 9 11 16 20 22 30 38 47 50 62 74 71 78 71 83 89 94
9 9 7 7 29 25 12 9 4 18 20 13 14 16 20 26 30 29 20 9 6 5 6 10 12 11 11 22 36 39 46 54 64 63 62 49 76 77 84 81 89 85 68
6 8 8 9 15 11 8 4 16 21 20 15 15 14 12 14 11 10 9 7 5 5 7 10 14 24 30 41 52 53 53 64 70 88 81 61 79 86 89 51 48 47 46
7 11 8 7 5 4 4 7 19 26 24 22 17 17 13 12 12 12 13 12 7 11 17 26 39 41 47 48 45 43 44 42 28 24 32 63 72 63 38 43 56 55 60
7 7 5 4 3 3 4 19 29 30 30 29 24 17 22 18 21 21 27 26 20 40 50 54 51 48 44 55 59 63 59 33 37 35 25 40 44 54 52 52 57 59 55
5 6 5 3 3 5 16 29 34 43 42 40 41 38 37 39 39 41 42 41 40 50 51 43 36 47 64 47 46 40 53 81 71 66 51 44 48 59 69 57 47 35 31
4 4 4 6 18 28 42 49 39 59 61 59 57 52 56 55 54 52 48 50 47 50 43 38 46 54 82 76 45 39 36 70 52 56 39 38 49 56 54 42 36 31 28
51 27 10 30 70 82 74 70 66 63 65 65 60 62 66 68 64 58 60 61 57 57 53 54 48 41 38 33 27 29 30 32 34 33 34 38 41 41 35 28 25 23 30
71 75 45 24 83 98 94 75 77 78 70 67 71 73 73 74 76 71 67 64 68 69 60 71 71 66 56 47 46 33 39 47 48 42 40 38 36 27 25 23 20 23 26
94 96 91 52 50 69 95 82 85 82 79 74 80 82 74 75 78 69 70 70 75 74 77 74 76 74 68 63 66 61 51 48 53 36 30 26 24 23 21 21 20 19 20
81 84 96 98 60 61 96 86 90 84 79 81 84 81 79 83 92 93 92 90 83 83 82 82 82 82 79 77 73 68 67 67 64 37 23 23 26 23 22 19 12 14 16
97 89 94 94 88 58 67 74 90 93 91 92 81 82 83 80 79 84 84 85 86 80 70 79 74 67 64 58 46 47 52 38 30 22 21 26 24 21 20 15 11 15 18
73 65 60 73 84 76 70 46 54 74 90 89 91 81 82 75 82 88 86 88 88 81 54 47 48 33 33 21 26 27 28 21 19 20 29 27 20 19 17 14 8 11 11
39 38 52 70 69 73 72 60 49 35 46 65 83 81 79 74 85 88 86 84 78 61 46 37 35 20 17 20 24 20 18 19 24 34 30 23 18 18 14 10 6 8 8
29 18 14 16 17 15 17 24 39 61 67 73 69 62 62 64 70 72 72 68 43 27 22 16 12 15 18 17 17 18 20 30 38 34 25 20 20 17 13 9 7 5 7
31 23 38 32 28 26 22 17 14 12 11 10 10 11 11 14 18 20 22 16 11 11 12 12 13 15 16 17 20 25 34 38 36 31 24 22 19 14 10 8 7 7 13
41 32 49 43 32 28 30 28 26 24 20 15 12 12 11 10 10 11 11 13 14 16 17 21 23 25 26 29 39 45 43 39 34 28 23 22 15 9 8 8 6 10 14
54 42 56 49 38 35 28 26 27 28 27 26 24 22 22 21 20 22 23 25 26 26 26 28 31 37 42 46 48 42 37 31 26 25 24 16 12 12 10 9 12 14 15
58 46 60 55 48 46 40 31 26 28 31 30 29 28 26 26 26 26 26 25 24 24 26 28 30 33 35 38 36 30 27 26 25 22 15 13 14 10 11 13 15 18 18
65 53 58 56 50 50 43 38 32 33 34 34 33 31 29 27 26 25 25 25 25 26 27 29 28 27 27 25 24 25 27 27 20 14 15 16 12 10 12 15 20 22 25
67 60 56 46 49 50 45 42 39 36 33 32 30 28 26 24 23 22 22 23 24 24 24 24 24 24 25 26 26 23 26 23 13 17 15 14 10 13 16 24 27 31 37
67 74 70 60 56 54 50 45 38 35 29 26 24 21 18 17 17 17 16 16 16 16 18 22 22 23 24 21 18 16 16 16 16 15 13 15 15 19 32 35 32 41 57
82 77 78 71 71 61 57 51 39 31 27 24 22 19 16 16 15 13 12 12 13 15 20 26 25 21 18 16 18 20 18 16 14 14 17 21 26 33 33 44 50 60 58